GFSNIL_sfc_30mbdewp_117.txt.gz
Dewpoint
47 48 49 52 56 56 57 57 58 58 59 59 59 59 59 60 59 59 59 59 59 58
48 49 53 55 55 55 55 56 57 58 58 58 60 60 60 60 60 59 59 59 59 59
49 50 51 51 50 51 53 53 54 54 57 59 57 58 58 58 58 59 59 59 59 59
45 45 46 46 45 46 47 48 48 47 48 48 49 50 51 50 50 51 51 51 52 56
41 41 41 41 41 41 41 42 44 45 44 45 45 45 45 45 45 46 46 46 47 47
39 39 37 37 37 37 36 36 36 38 41 41 41 41 42 42 42 43 44 44 45 45
33 35 35 34 34 35 36 33 32 30 31 31 32 33 33 35 35 34 35 39 42 43
31 32 32 29 27 27 32 35 31 25 24 23 25 30 33 30 29 29 29 30 32 33
27 28 29 28 26 24 23 22 23 22 22 21 22 28 29 29 26 28 28 29 30 29
24 25 26 27 26 25 23 22 21 21 21 21 21 27 29 30 26 28 29 27 26 25
23 23 23 24 23 22 21 22 22 21 21 21 22 27 29 29 27 26 25 23 23 23
19 19 21 22 22 23 23 23 23 22 23 23 22 26 28 27 26 24 23 22 22 23
20 20 22 22 22 23 23 22 23 22 23 22 22 24 26 26 24 22 22 22 22 22
19 19 20 21 22 22 21 21 21 20 19 20 20 21 24 27 25 25 25 24 24 24

GFSNIL_sfc_30mbdewp_120.txt.gz
Dewpoint
44 46 47 49 50 53 55 56 60 60 61 62 62 62 62 62 61 61 61 60 60 59
50 51 51 51 52 53 54 56 57 58 59 59 58 59 59 59 59 60 59 58 58 58
47 47 47 47 47 47 48 49 50 51 51 51 51 55 56 55 54 57 55 54 55 57
43 43 43 42 42 42 42 45 45 46 46 46 46 47 47 48 48 48 48 48 48 48
38 38 37 37 37 37 36 37 40 42 41 41 41 42 43 44 45 44 44 45 45 45
35 34 35 35 35 35 33 32 31 34 35 36 37 37 37 38 38 39 42 42 43 44
34 33 32 30 33 34 35 33 30 28 28 29 32 34 35 36 36 33 33 35 36 37
32 33 33 32 30 29 32 33 33 32 31 30 31 33 33 31 35 35 35 34 32 31
30 30 31 32 32 31 31 28 29 30 31 30 31 33 33 32 31 31 30 28 27 26
25 29 29 31 29 29 29 28 25 25 23 26 28 30 31 29 28 28 25 24 24 23
21 22 24 24 24 24 24 24 24 23 24 24 25 28 29 28 27 26 26 24 23 23
21 21 23 23 24 24 24 24 24 24 24 23 23 26 28 27 26 23 24 24 23 24
21 21 22 23 23 23 23 23 23 22 22 23 22 24 26 27 26 25 25 25 24 26
20 18 20 20 22 21 20 20 20 19 19 20 21 22 26 27 25 26 25 25 26 27

GFSNIL_sfc_30mbdewp_123.txt.gz
Dewpoint
47 46 46 49 51 52 53 55 56 57 57 58 60 61 62 62 61 61 61 60 60 60
48 48 48 49 49 49 50 51 52 52 52 54 56 59 60 59 60 61 60 59 59 59
44 44 44 44 44 44 46 47 48 48 48 48 49 50 52 51 52 53 51 51 51 50
39 38 38 38 39 39 41 43 43 43 43 43 43 45 46 46 46 46 46 47 46 46
35 35 35 35 35 34 34 36 38 37 37 37 38 39 39 40 41 41 42 43 44 40
35 34 32 33 34 34 33 31 29 30 32 33 33 34 36 35 34 35 36 38 38 37
35 35 34 33 31 33 33 32 32 30 31 31 33 33 32 36 35 35 36 35 34 35
32 34 34 33 32 31 30 31 32 32 32 33 33 33 32 34 34 35 34 34 33 33
30 30 31 32 32 32 32 30 31 31 32 32 33 34 34 32 33 31 30 29 30 29
24 27 28 29 27 27 29 29 29 28 30 29 29 31 33 31 31 29 28 26 26 24
22 23 24 25 24 24 25 25 26 28 28 26 27 29 29 28 27 26 26 25 24 24
21 23 24 24 24 24 23 23 23 24 24 23 24 27 29 27 26 26 26 26 26 26
21 22 22 23 23 22 22 21 22 21 22 23 21 26 28 27 25 26 25 26 27 28
19 19 19 20 21 20 19 19 19 18 20 20 22 23 26 27 25 26 25 26 26 26

GFSNIL_sfc_30mbdewp_126.txt.gz
Dewpoint
47 49 49 49 50 50 50 51 51 52 53 54 57 58 58 58 59 61 61 61 61 60
41 42 44 45 45 47 47 48 49 50 50 50 51 54 57 58 57 58 54 54 58 57
38 38 38 38 38 39 42 43 44 44 45 45 47 48 49 50 50 49 49 49 49 49
35 35 36 35 35 35 35 38 38 38 39 40 41 43 44 44 45 45 45 44 42 42
34 34 33 34 34 34 34 32 35 36 36 35 36 39 39 40 41 40 40 39 37 40
35 35 34 33 33 33 33 33 33 32 32 33 33 34 37 36 37 38 38 37 37 38
34 35 34 34 33 33 32 31 33 33 33 33 33 33 34 34 35 35 34 35 35 35
30 31 31 31 32 32 32 31 32 32 32 33 33 34 33 34 33 32 32 33 32 34
29 29 30 31 31 31 30 30 30 32 31 32 33 34 33 32 30 29 29 29 31 32
24 26 26 26 25 26 27 28 28 28 29 29 30 32 32 31 30 28 27 28 27 26
22 24 24 24 23 23 24 24 25 27 27 28 29 31 29 28 27 27 27 26 25 24
22 23 23 23 23 22 22 22 23 23 24 23 26 29 28 27 27 26 25 27 29 28
22 21 21 22 22 21 21 20 21 21 23 23 23 28 28 26 26 26 25 26 26 28
20 19 18 19 21 20 18 19 19 20 21 22 23 26 28 29 28 27 26 26 26 26

GFSNIL_sfc_30mbdewp_129.txt.gz
Dewpoint
40 42 42 42 44 45 46 47 49 49 50 51 52 52 53 56 57 58 58 58 59 59
38 38 38 38 38 39 41 42 42 43 44 45 47 49 51 53 56 56 54 53 53 55
36 36 36 36 35 35 35 38 39 38 39 40 42 44 46 47 48 49 49 48 47 47
35 35 35 35 34 34 34 34 35 36 37 36 38 39 41 42 43 42 41 41 42 41
35 35 34 34 34 34 34 34 34 34 35 35 36 38 38 38 39 39 39 39 39 40
34 34 34 34 34 33 32 33 33 34 33 33 33 34 35 38 36 36 37 38 37 37
30 30 31 32 32 32 32 32 32 32 33 33 34 33 34 35 34 34 35 35 35 34
28 29 30 30 30 31 31 31 32 32 33 33 34 33 32 31 31 31 32 33 32 33
27 27 28 27 27 29 28 28 29 31 31 31 32 32 32 31 30 30 29 30 31 31
24 25 25 25 24 24 24 26 27 27 28 29 31 30 30 30 28 27 27 27 27 24
22 24 24 24 23 22 23 23 24 25 26 26 29 30 29 28 27 27 28 28 25 27
21 23 22 22 22 21 21 21 22 23 23 23 26 29 27 27 26 25 26 26 28 28
22 21 20 20 21 21 20 20 20 20 22 23 23 28 30 28 27 26 26 26 26 29
20 20 18 19 20 20 18 19 20 20 22 23 26 27 27 28 27 27 26 25 25 26

GFSNIL_sfc_30mbdewp_132.txt.gz
Dewpoint
38 39 39 39 40 41 41 43 42 43 44 44 45 47 49 51 52 53 54 56 56 56
36 37 36 36 37 36 37 39 39 39 39 40 41 42 45 47 48 51 53 53 53 54
35 36 36 35 35 35 35 36 37 37 37 38 39 40 42 42 43 43 43 45 45 45
35 35 34 34 34 35 35 35 35 35 35 36 37 39 39 40 40 39 41 41 41 42
34 35 33 33 33 33 32 33 34 34 34 34 34 35 38 38 38 38 38 38 39 40
29 29 30 30 31 32 31 32 32 32 33 34 34 33 35 35 36 37 37 37 36 35
27 28 29 29 30 30 30 30 31 32 33 33 34 33 32 32 33 33 33 34 34 34
26 28 28 28 28 29 28 28 30 30 30 31 32 32 31 30 30 31 32 32 32 33
26 26 26 25 24 25 25 27 27 27 28 31 32 30 31 29 28 28 30 31 30 30
23 24 25 24 23 22 23 24 24 26 27 28 30 29 30 29 28 28 28 26 26 27
21 23 23 22 22 21 21 22 23 23 24 27 28 28 28 28 27 27 27 28 28 27
20 22 21 20 21 21 20 20 21 23 22 23 25 30 29 28 26 26 26 26 26 30
21 21 19 19 20 20 19 20 20 20 22 24 24 29 27 28 27 26 26 25 25 28
21 20 18 18 20 20 18 19 20 21 22 23 28 27 28 27 26 26 24 24 23 25